AgMet,15min,monroe,124,14DEC2017:00:00:00,12.68,33.21,32.9,33.5,32.0,37,37.41,36,0.2370,9.3,4.214,5.0,22,16,6.8,9.49,.,0,.0001576,.0002157
AgMet,15min,monroe,124,14DEC2017:00:15:00,12.67,31.74,32.6,33.3,31.4,37,38.36,36,0.2230,9.3,4.847,4.0,139,39,11.0,9.49,.,0,.0001097,.0001613
AgMet,15min,monroe,124,14DEC2017:00:30:00,12.66,31.93,31.6,32.1,31.2,37,37.68,35,0.2140,8.2,4.799,5.4,154,17,8.1,9.49,.,0,.0001681,.0002247
AgMet,15min,monroe,124,14DEC2017:00:45:00,12.66,32.6,32.3,33.0,31.6,36,36.12,35,0.2220,8.1,1.656,3.2,103,44,5.0,9.49,.,0,.0000674,.0001111
AgMet,15min,monroe,124,14DEC2017:01:00:00,12.65,32.04,32.2,32.7,31.9,36,37.38,35,0.2260,8.5,1.073,1.5,274,50,3.3,9.49,.,0,-.000067,-.000071
AgMet,15min,monroe,124,14DEC2017:01:15:00,12.65,31.98,32.6,33.6,31.9,38,39.04,37,0.2350,9.8,2.029,1.2,153,41,4.4,9.49,.,0,-.000106,-.000132
AgMet,15min,monroe,124,14DEC2017:01:30:00,12.64,32.1,31.9,32.5,31.6,39,39.65,38,0.2400,9.8,3.445,2.9,200,8,4.6,9.49,.,0,.0000390,.0000740
AgMet,15min,monroe,124,14DEC2017:01:45:00,12.63,31.73,31.9,32.2,31.5,40,40.46,39,0.2430,10.1,3.437,3.5,217,10,4.4,9.49,.,0,.0000738,.0001167
AgMet,15min,monroe,124,14DEC2017:02:00:00,12.63,32.34,32.4,33.0,31.7,39,40.39,38,0.2410,10.1,2.648,3.1,206,4,3.3,9.49,.,0,.0000534,.0000927
AgMet,15min,monroe,124,14DEC2017:02:15:00,12.62,31.49,32.0,32.5,31.5,40,41.14,39,0.2460,10.2,2.013,2.4,228,14,3.1,9.49,.,0,.0000018,.0000255
AgMet,15min,monroe,124,14DEC2017:02:30:00,12.62,29.71,30.6,31.6,29.7,42,43.99,41,0.2400,10.4,2.479,2.1,346,35,4.4,9.49,.,0,-.000022,-.000009
AgMet,15min,monroe,124,14DEC2017:02:45:00,12.61,31.98,30.6,32.0,29.5,43,44.47,41,0.2560,10.6,2.803,2.7,317,20,5.9,9.48,.,0,.0000144,.0000403
AgMet,15min,monroe,124,14DEC2017:03:00:00,12.6,32.28,32.2,32.6,31.9,48,51.43,42,0.3160,14.7,7.343,4.7,4,12,12.5,9.49,.,0,.0000998,.0001427
AgMet,15min,monroe,124,14DEC2017:03:15:00,12.59,31.85,31.9,32.4,31.2,52,52.78,51,0.3150,16.3,7.717,8.1,3,11,13.6,9.49,.,0,.0001686,.0002111
AgMet,15min,monroe,124,14DEC2017:03:30:00,12.59,32.34,32.4,32.9,31.8,50,51.8,49,0.3090,15.9,8.11,7.8,341,8,12.3,9.49,.,0,.0001758,.0002214
AgMet,15min,monroe,124,14DEC2017:03:45:00,12.58,32.89,32.8,33.2,32.3,49,49.93,48,0.3100,15.7,7.767,8.1,334,10,11.6,9.49,.,0,.0001912,.0002389
AgMet,15min,monroe,124,14DEC2017:04:00:00,12.57,31.91,32.2,33.1,31.4,51,52,49,0.3120,15.9,4.304,6.0,86,63,10.3,9.49,.,0,.0001305,.0001743
AgMet,15min,monroe,124,14DEC2017:04:15:00,12.56,33.5,33.2,33.9,31.9,49,51.39,48,0.3150,16.3,2.358,3.2,334,75,6.6,9.49,.,0,.0000278,.0000573
AgMet,15min,monroe,124,14DEC2017:04:30:00,12.55,33.08,33.4,33.6,33.1,49,49.9,49,0.3180,16.4,3.432,2.5,9,33,9.0,9.49,.,0,-.000011,.0000066
AgMet,15min,monroe,124,14DEC2017:04:45:00,12.54,32.71,32.7,33.4,32.1,51,52.17,50,0.3240,16.6,3.852,3.9,26,16,8.6,9.49,.,0,.0000558,.0000906
AgMet,15min,monroe,124,14DEC2017:05:00:00,12.53,31.55,32.1,32.8,31.4,53,54.51,51,0.3270,16.9,5.361,4.8,17,12,8.8,9.49,.,0,.0000806,.0001176
AgMet,15min,monroe,124,14DEC2017:05:15:00,12.52,31.55,31.7,32.0,31.4,55,55.6,54,0.3330,17.3,7.869,6.4,18,10,11.6,9.49,.,0,.0001193,.0001581
AgMet,15min,monroe,124,14DEC2017:05:30:00,12.51,31.3,31.4,31.6,31.1,56,57.03,56,0.3390,17.7,7.94,8.2,15,7,11.6,9.49,.,0,.0001457,.0001831
AgMet,15min,monroe,124,14DEC2017:05:45:00,12.5,31.36,31.4,31.7,31.1,58,58.32,57,0.3470,18.1,8.64,8.2,12,9,15.3,9.49,.,0,.0001392,.0001754
AgMet,15min,monroe,124,14DEC2017:06:00:00,12.49,31.3,31.3,31.6,31.1,59,59.23,58,0.3520,18.5,7.764,8.1,5,11,12.9,9.49,.,0,.0001328,.0001678
AgMet,15min,monroe,124,14DEC2017:06:15:00,12.48,31.12,31.3,31.6,31.0,60,60.49,59,0.3560,18.9,9.21,8.6,2,12,14.5,9.49,.,0,.0001341,.0001678
AgMet,15min,monroe,124,14DEC2017:06:30:00,12.48,30.39,30.7,31.2,30.3,61,62.56,60,0.3580,19.0,9.66,9.7,0,10,16.7,9.49,.,0,.0001376,.0001686
AgMet,15min,monroe,124,14DEC2017:06:45:00,12.48,30.26,30.2,30.4,30.0,63,63.71,62,0.3600,19.2,7.76,8.6,0,11,13.6,9.49,.,0,.0001118,.0001410
AgMet,15min,monroe,124,14DEC2017:07:00:00,12.47,29.78,30.1,30.4,29.7,64,64.94,63,0.3620,19.3,7.498,7.5,2,11,13.4,9.49,.,0,.0000919,.0001199
AgMet,15min,monroe,124,14DEC2017:07:15:00,12.47,29.59,29.6,29.8,29.4,65,65.72,65,0.3630,19.5,6.568,7.1,4,11,12.1,9.48,.,0,.0000778,.0001038
AgMet,15min,monroe,124,14DEC2017:07:30:00,12.47,29.29,29.5,29.8,29.3,65,65.65,65,0.3550,19.2,5.235,5.8,357,12,8.3,9.48,.,1,.0000543,.0000785
AgMet,15min,monroe,124,14DEC2017:07:45:00,12.47,28.8,29.2,29.6,28.6,65,65.68,64,0.3520,18.9,5.012,5.3,2,12,10.3,9.48,.,3,.0000459,.0000691
AgMet,15min,monroe,124,14DEC2017:08:00:00,12.48,28.07,28.3,28.9,27.8,66,66.09,65,0.3410,18.3,4.676,4.4,22,7,7.7,9.48,.,14,-.000016,.0001268
AgMet,15min,monroe,124,14DEC2017:08:15:00,12.5,28.07,27.7,28.1,27.2,67,68.09,65,0.3510,18.1,4.51,4.9,50,25,6.1,9.48,.,31,.0000671,.0002196
AgMet,15min,monroe,124,14DEC2017:08:30:00,12.63,27.82,27.4,28.3,26.8,68,68.88,66,0.3480,18.2,2.666,3.7,181,31,4.8,9.48,.,57,.0001119,.0002318
AgMet,15min,monroe,124,14DEC2017:08:45:00,13.03,29.72,29.0,29.8,27.7,66,67.69,65,0.3660,19.2,2.92,2.0,103,51,7.0,9.48,.,101,.0001526,.0002364
AgMet,15min,monroe,124,14DEC2017:09:00:00,13.67,30.64,30.4,30.9,29.7,64,65.68,63,0.3690,19.9,4.466,4.3,51,10,6.4,9.49,.,177,.0004755,.0006568
AgMet,15min,monroe,124,14DEC2017:09:15:00,13.57,30.27,30.6,30.9,30.2,63,64.03,62,0.3560,19.6,4.695,4.7,19,18,7.5,9.49,.,159,.0005239,.0007275
AgMet,15min,monroe,124,14DEC2017:09:30:00,13.72,30.88,30.6,30.9,30.2,62,62.93,61,0.3580,19.2,4.246,4.3,10,12,6.6,9.49,.,171,.0006014,.0008022
AgMet,15min,monroe,124,14DEC2017:09:45:00,13.44,30.14,30.5,31.1,30.0,64,65.04,61,0.3680,19.6,4.603,4.4,22,12,7.2,9.49,.,143,.0005989,.0007967
AgMet,15min,monroe,124,14DEC2017:10:00:00,13.94,31,30.6,31.3,30.0,65,65.38,64,0.3760,20.1,4.898,4.8,6,14,6.6,9.49,.,238,.0008079,.0010250
AgMet,15min,monroe,124,14DEC2017:10:15:00,13.79,31.85,31.3,31.9,30.9,64,64.63,63,0.3870,20.5,5.622,5.2,47,19,8.6,9.49,.,314,.0010205,.0012654
AgMet,15min,monroe,124,14DEC2017:10:30:00,13.74,32.46,32.1,32.7,31.4,63,64.15,62,0.3910,21.0,7.052,6.4,46,10,10.7,9.50,.,352,.0011679,.0014598
AgMet,15min,monroe,124,14DEC2017:10:45:00,13.73,32.83,32.8,33.3,32.1,62,63.27,60,0.3890,21.2,6.704,6.8,53,16,11.4,9.50,.,380,.0012918,.0016168
AgMet,15min,monroe,124,14DEC2017:11:00:00,13.73,33.43,33.2,33.9,32.7,61,61.91,59,0.3930,21.1,5.933,6.6,64,21,9.9,9.50,.,405,.0013963,.0017312
AgMet,15min,monroe,124,14DEC2017:11:15:00,13.73,34.28,33.9,34.4,33.4,59,60.72,59,0.3920,21.3,4.929,5.6,59,25,9.6,9.50,.,424,.0014966,.0018196
AgMet,15min,monroe,124,14DEC2017:11:30:00,13.75,34.83,34.5,35.2,33.8,58,59.02,57,0.3990,21.4,4.022,4.1,71,25,7.7,9.50,.,440,.0015870,.0018764
AgMet,15min,monroe,124,14DEC2017:11:45:00,13.74,35.38,35.0,35.4,34.5,57,58.31,56,0.3990,21.4,4.425,4.2,47,20,8.3,9.51,.,453,.0016581,.0019617
AgMet,15min,monroe,124,14DEC2017:12:00:00,13.74,36.04,35.6,36.0,35.1,56,57.14,56,0.4050,21.6,4.934,4.7,65,27,9.2,9.51,.,466,.0017307,.0020667
AgMet,15min,monroe,124,14DEC2017:12:15:00,13.75,36.46,36.2,37.1,35.4,55,56.83,54,0.4010,21.8,4.406,4.7,50,34,8.8,9.51,.,472,.0017821,.0021272
AgMet,15min,monroe,124,14DEC2017:12:30:00,13.75,37.56,36.7,37.7,35.9,54,55.41,53,0.4040,21.8,3.198,3.8,51,32,7.7,9.51,.,471,.0018076,.0021258
AgMet,15min,monroe,124,14DEC2017:12:45:00,13.76,38.41,37.8,38.7,37.0,53,53.88,52,0.4070,22.1,3.974,3.4,57,20,10.1,9.51,.,471,.0018561,.0021742
AgMet,15min,monroe,124,14DEC2017:13:00:00,13.76,38.66,38.6,39.6,37.9,51,52.49,50,0.4060,22.2,5.582,4.9,15,19,10.5,9.51,.,463,.0018767,.0022756
AgMet,15min,monroe,124,14DEC2017:13:15:00,13.76,39.27,39.3,40.4,38.5,50,51.33,48,0.4030,22.3,6.432,6.0,12,18,12.3,9.51,.,455,.0018929,.0023530
AgMet,15min,monroe,124,14DEC2017:13:30:00,13.76,40.24,40.3,41.0,39.2,48,49.97,47,0.3990,22.1,7.584,6.8,1,15,13.6,9.51,.,445,.0019216,.0024441
AgMet,15min,monroe,124,14DEC2017:13:45:00,13.76,40.24,40.7,41.3,39.7,47,48.41,46,0.3940,21.8,8.34,8.3,3,11,13.4,9.50,.,433,.0019321,.0025350
AgMet,15min,monroe,124,14DEC2017:14:00:00,13.76,41.1,41.1,41.8,40.1,46,47.33,45,0.3920,21.8,9.24,8.9,356,13,14.3,9.50,.,415,.0019047,.0025418
AgMet,15min,monroe,124,14DEC2017:14:15:00,13.76,41.59,41.2,41.8,40.5,45,46.34,45,0.3980,21.7,9.91,9.4,359,12,16.4,9.50,.,391,.0018388,.0024986
AgMet,15min,monroe,124,14DEC2017:14:30:00,13.76,41.1,41.3,41.8,40.8,45,45.8,44,0.3980,21.6,11.2,10.7,8,11,15.8,9.50,.,366,.0017880,.0024961
AgMet,15min,monroe,124,14DEC2017:14:45:00,13.76,41.22,41.3,41.7,40.9,45,45.63,45,0.3940,21.6,10.57,10.9,12,11,16.2,9.50,.,339,.0017012,.0024150
AgMet,15min,monroe,124,14DEC2017:15:00:00,13.75,41.59,41.5,42.1,41.1,44,44.99,43,0.3910,21.4,10.47,10.5,10,11,14.7,9.50,.,307,.0015941,.0022979
AgMet,15min,monroe,124,14DEC2017:15:15:00,13.75,41.46,41.5,41.8,41.2,44,44.95,44,0.3970,21.3,10.66,10.7,9,12,14.5,9.49,.,272,.0014773,.0021819
AgMet,15min,monroe,124,14DEC2017:15:30:00,13.75,41.09,41.3,41.7,41.0,44,45.05,44,0.3910,21.3,10.02,10.3,9,10,14.7,9.49,.,236,.0013274,.0020056
AgMet,15min,monroe,124,14DEC2017:15:45:00,13.76,40.6,40.9,41.3,40.5,45,46.31,45,0.3970,21.4,9.85,9.9,23,8,14.5,9.49,.,196,.0011473,.0017834
AgMet,15min,monroe,124,14DEC2017:16:00:00,13.76,39.56,40.1,40.7,39.5,47,48.27,46,0.3970,21.6,10.49,10.2,21,7,14.0,9.49,.,157,.0009740,.0015779
AgMet,15min,monroe,124,14DEC2017:16:15:00,13.77,38.89,39.1,39.6,38.7,49,49.76,48,0.3980,21.6,9.83,10.2,21,8,13.6,9.48,.,119,.0007969,.0013625
AgMet,15min,monroe,124,14DEC2017:16:30:00,13.81,37.61,38.1,38.9,37.4,51,51.97,49,0.3960,21.5,8.2,8.9,21,7,12.7,9.48,.,85,.0005585,.0010344
AgMet,15min,monroe,124,14DEC2017:16:45:00,13.21,36.15,36.8,37.7,36.0,53,54.72,52,0.3940,21.4,8.45,8.4,19,7,12.5,9.47,.,51,.0003747,.0007899
AgMet,15min,monroe,124,14DEC2017:17:00:00,13,34.75,35.3,36.2,34.6,56,56.72,54,0.3860,21.0,8.03,8.2,16,7,11.8,9.47,.,16,.0003250,.0006966
AgMet,15min,monroe,124,14DEC2017:17:15:00,12.93,34.38,34.5,34.8,34.1,57,57.4,57,0.3830,20.8,7.978,8.0,10,8,12.1,9.47,.,5,.0001568,.0001988
AgMet,15min,monroe,124,14DEC2017:17:30:00,12.9,31.21,33.1,34.4,31.2,58,60.46,57,0.3560,20.1,5.12,7.3,67,69,11.6,9.47,.,1,.0001259,.0001636
AgMet,15min,monroe,124,14DEC2017:17:45:00,12.88,30.53,30.6,31.3,29.5,61,63.07,60,0.3600,18.9,3.755,3.5,170,13,5.9,9.46,.,0,.0000018,.0000193
AgMet,15min,monroe,124,14DEC2017:18:00:00,12.86,31.58,31.2,31.8,30.5,61,62.63,60,0.3630,19.4,1.613,3.1,122,46,3.9,9.46,.,0,-.000016,-.000003
AgMet,15min,monroe,124,14DEC2017:18:15:00,12.85,30.86,31.2,31.7,30.8,61,61.39,60,0.3540,19.2,1.506,1.4,50,19,3.3,9.46,.,0,-.000109,-.000136
AgMet,15min,monroe,124,14DEC2017:18:30:00,12.83,30.19,30.5,31.0,30.2,62,62.38,61,0.3490,18.9,1.233,1.1,35,22,3.3,9.46,.,0,-.000138,-.000184
AgMet,15min,monroe,124,14DEC2017:18:45:00,12.83,29.46,29.4,30.3,28.8,63,64.65,62,0.3520,18.5,1.141,1.4,347,66,2.9,9.46,.,0,-.000108,-.000135
AgMet,15min,monroe,124,14DEC2017:19:00:00,12.82,26.17,29.1,30.2,26.0,63,66.8,62,0.3210,18.2,2.277,1.6,247,24,4.2,9.46,.,0,-.000097,-.000119
AgMet,15min,monroe,124,14DEC2017:19:15:00,12.81,23.91,25.5,28.2,23.5,68,70.84,63,0.3080,16.4,4.193,3.1,217,10,5.7,9.45,.,0,-.000031,-.000026
AgMet,15min,monroe,124,14DEC2017:19:30:00,12.8,24.16,23.3,24.2,22.7,72,73.56,70,0.3200,15.7,5.228,4.9,240,5,6.1,9.45,.,0,.0000030,.0000143
AgMet,15min,monroe,124,14DEC2017:19:45:00,12.79,23.43,22.8,24.2,21.7,73,74.89,71,0.3140,15.6,5.137,5.2,239,6,6.1,9.45,.,0,.0000039,.0000148
AgMet,15min,monroe,124,14DEC2017:20:00:00,12.79,22.09,23.2,25.0,21.6,73,75.54,70,0.3060,15.7,3.851,4.6,246,3,5.3,9.45,.,0,-.000005,.0000042
AgMet,15min,monroe,124,14DEC2017:20:15:00,12.78,20.01,22.0,25.6,20.0,73,76.15,67,0.2800,14.5,0.708,2.5,218,53,3.5,9.45,.,0,-.000056,-.000062
AgMet,15min,monroe,124,14DEC2017:20:30:00,12.77,20.93,21.2,22.2,19.9,76,78.83,74,0.2910,14.9,0.576,0.2,189,27,2.9,9.45,.,0,-.000170,-.000260
AgMet,15min,monroe,124,14DEC2017:20:45:00,12.76,26.24,23.4,26.4,20.9,74,76.49,70,0.3370,16.4,2.949,1.9,188,20,3.5,9.46,.,0,-.000084,-.000102
AgMet,15min,monroe,124,14DEC2017:21:00:00,12.75,25.51,25.7,27.1,24.4,70,71.74,67,0.3230,17.2,2.378,2.8,224,10,3.5,9.46,.,0,-.000046,-.000046
AgMet,15min,monroe,124,14DEC2017:21:15:00,12.74,20.19,23.4,25.5,20.2,71,75.27,65,0.2620,15.3,1.455,1.9,241,20,2.6,9.46,.,0,-.000080,-.000096
AgMet,15min,monroe,124,14DEC2017:21:30:00,12.73,19.64,18.9,20.2,18.1,76,80,70,0.2920,12.7,0.706,1.2,131,42,2.6,9.46,.,0,-.000106,-.000140
AgMet,15min,monroe,124,14DEC2017:21:45:00,12.73,22.09,20.8,22.3,19.6,77,80.4,73,0.2990,14.8,1.886,0.8,226,36,4.2,9.46,.,0,-.000132,-.000184
AgMet,15min,monroe,124,14DEC2017:22:00:00,12.72,22.4,22.0,22.5,21.2,74,75.48,72,0.3090,14.9,0.842,1.9,242,32,3.1,9.46,.,0,-.000081,-.000098
AgMet,15min,monroe,124,14DEC2017:22:15:00,12.72,16.29,19.0,23.7,15.6,74,79.22,67,0.2510,12.1,3.871,1.8,159,22,6.1,9.46,.,0,-.000079,-.000096
AgMet,15min,monroe,124,14DEC2017:22:30:00,12.71,17.64,18.7,20.9,16.3,77,80.6,72,0.2430,12.7,3.608,4.4,179,12,5.5,9.46,.,0,-.000018,-.000013
AgMet,15min,monroe,124,14DEC2017:22:45:00,12.7,19.6,18.7,20.0,16.4,76,78.72,72,0.2770,12.3,1.838,2.8,215,14,3.5,9.46,.,0,-.000049,-.000052
AgMet,15min,monroe,124,14DEC2017:23:00:00,12.7,18.81,18.3,19.7,17.5,77,78.11,74,0.2740,12.1,0.396,0.8,263,28,1.5,9.46,.,0,-.000120,-.000166
AgMet,15min,monroe,124,14DEC2017:23:15:00,12.69,18.99,18.7,19.4,17.8,77,78.93,75,0.2700,12.6,1.186,0.6,110,74,3.3,9.47,.,0,-.000136,-.000195
AgMet,15min,monroe,124,14DEC2017:23:30:00,12.69,22.35,20.9,22.7,18.7,75,77.91,71,0.3060,14.3,2.087,1.8,227,28,3.3,9.47,.,0,-.000083,-.000101
AgMet,15min,monroe,124,14DEC2017:23:45:00,12.68,18.38,20.0,22.6,18.4,75,76.99,68,0.2640,13.3,1.854,2.2,320,20,3.7,9.47,.,0,-.000067,-.000078
AgMet,15min,evanston,130,14DEC2017:00:00:00,12.43,22.98,23.6,24.1,22.9,86,86.6,85,0.3570,19.9,4.652,5.3,64,11,7.2,14.20,.,0,.0000505,.0000626
AgMet,15min,evanston,130,14DEC2017:00:15:00,12.43,21.26,22.6,23.5,21.1,83,85,81,0.3230,18.2,4.369,4.7,56,14,7.5,14.19,.,0,.0000546,.0000685
AgMet,15min,evanston,130,14DEC2017:00:30:00,12.43,19.48,19.4,21.4,17.9,85,86.6,83,0.3120,15.6,3.181,3.6,53,39,4.8,14.19,.,0,.0000388,.0000502
AgMet,15min,evanston,130,14DEC2017:00:45:00,12.43,20.09,19.1,20.1,18.4,86,87.5,85,0.3260,15.7,1.598,2.4,4,25,3.1,14.18,.,0,.0000282,.0000385
AgMet,15min,evanston,130,14DEC2017:01:00:00,12.43,22.24,21.4,22.6,20.0,86,87.6,84,0.3420,17.9,3.187,2.3,16,29,5.9,14.19,.,0,.0000298,.0000410
AgMet,15min,evanston,130,14DEC2017:01:15:00,12.43,22.86,22.4,22.9,22.1,84,85,83,0.3470,18.4,2.801,2.9,70,16,5.7,14.19,.,0,.0000394,.0000528
AgMet,15min,evanston,130,14DEC2017:01:30:00,12.43,22.56,22.6,22.9,22.4,83,83.7,83,0.3450,18.3,3.07,3.1,70,16,4.4,14.20,.,0,.0000437,.0000581
AgMet,15min,evanston,130,14DEC2017:01:45:00,12.42,22.56,22.6,22.7,22.4,83,83.4,83,0.3430,18.2,2.398,2.9,75,18,4.4,14.20,.,0,.0000435,.0000582
AgMet,15min,evanston,130,14DEC2017:02:00:00,12.42,22.5,22.6,22.8,22.4,82,83,82,0.3390,18.0,3.145,2.7,73,9,4.4,14.20,.,0,.0000434,.0000586
AgMet,15min,evanston,130,14DEC2017:02:15:00,12.42,22.5,22.5,22.7,22.4,83,83.2,82,0.3410,18.1,2.65,2.9,76,8,4.6,14.20,.,0,.0000437,.0000585
AgMet,15min,evanston,130,14DEC2017:02:30:00,12.41,22.5,22.5,22.6,22.3,83,83.7,82,0.3450,18.1,0.901,1.8,44,40,3.1,14.20,.,0,.0000322,.0000460
AgMet,15min,evanston,130,14DEC2017:02:45:00,12.42,22.5,22.5,22.6,22.3,84,84.2,84,0.3470,18.3,1.7,1.4,17,28,3.5,14.20,.,0,.0000264,.0000387
AgMet,15min,evanston,130,14DEC2017:03:00:00,12.41,22.37,22.4,22.6,22.3,85,85,84,0.3490,18.5,1.144,1.4,43,10,2.2,14.20,.,0,.0000250,.0000367
AgMet,15min,evanston,130,14DEC2017:03:15:00,12.41,22.62,22.5,22.6,22.3,85,85,84,0.3500,18.6,0.473,0.5,344,61,2.2,14.20,.,0,.0000119,.0000192
AgMet,15min,evanston,130,14DEC2017:03:30:00,12.41,22.8,22.8,23.0,22.5,83,84.4,83,0.3470,18.5,1.389,1.0,323,17,3.1,14.20,.,0,.0000213,.0000326
AgMet,15min,evanston,130,14DEC2017:03:45:00,12.41,22.43,22.7,22.9,22.3,84,85,83,0.3500,18.5,3.066,2.2,32,71,4.8,14.20,.,0,.0000356,.0000493
AgMet,15min,evanston,130,14DEC2017:04:00:00,12.41,22.8,22.6,22.9,22.3,85,85.2,84,0.3500,18.7,3.871,3.3,88,22,7.2,14.20,.,0,.0000426,.0000559
AgMet,15min,evanston,130,14DEC2017:04:15:00,12.41,23.17,22.9,23.2,22.7,83,83.9,83,0.3510,18.7,3.987,4.2,69,22,7.5,14.20,.,0,.0000515,.0000656
AgMet,15min,evanston,130,14DEC2017:04:30:00,12.4,22.62,22.9,23.2,22.6,83,84.1,83,0.3480,18.6,4.025,3.8,65,8,6.6,14.20,.,0,.0000498,.0000643
AgMet,15min,evanston,130,14DEC2017:04:45:00,12.4,22.49,22.6,22.7,22.4,84,84.4,84,0.3480,18.5,4.226,4.3,78,12,6.4,14.20,.,0,.0000492,.0000624
AgMet,15min,evanston,130,14DEC2017:05:00:00,12.4,22.5,22.5,22.6,22.4,84,84.5,84,0.3470,18.4,4.89,4.4,85,13,7.2,14.20,.,0,.0000497,.0000630
AgMet,15min,evanston,130,14DEC2017:05:15:00,12.4,22.37,22.3,22.5,22.1,84,84.4,84,0.3440,18.2,4.554,4.8,80,8,6.4,14.20,.,0,.0000514,.0000643
AgMet,15min,evanston,130,14DEC2017:05:30:00,12.4,22.56,22.5,22.7,22.3,84,84.7,84,0.3460,18.4,2.646,3.9,91,15,5.5,14.20,.,0,.0000469,.0000602
AgMet,15min,evanston,130,14DEC2017:05:45:00,12.4,22.86,22.7,22.9,22.5,84,84.3,83,0.3470,18.4,1.07,1.8,83,83,3.9,14.20,.,0,.0000315,.0000450
AgMet,15min,evanston,130,14DEC2017:06:00:00,12.4,22.31,22.7,22.9,22.3,83,84.5,83,0.3460,18.4,0.789,0.5,58,43,2.6,14.20,.,0,.0000132,.0000212
AgMet,15min,evanston,130,14DEC2017:06:15:00,12.4,22.62,22.4,22.7,22.2,85,85.2,84,0.3510,18.6,2.551,2.0,67,6,3.5,14.20,.,0,.0000308,.0000433
AgMet,15min,evanston,130,14DEC2017:06:30:00,12.4,22.5,22.5,22.6,22.4,85,85,85,0.3500,18.6,0.878,1.6,64,20,1.8,14.20,.,0,.0000271,.0000392
AgMet,15min,evanston,130,14DEC2017:06:45:00,12.4,21.88,22.3,22.6,21.8,85,85.8,85,0.3450,18.5,1.452,1.1,10,32,2.2,14.20,.,0,.0000210,.0000316
AgMet,15min,evanston,130,14DEC2017:07:00:00,12.39,21.39,21.6,21.9,21.3,86,86.8,86,0.3420,18.1,1.085,1.4,261,18,2.2,14.20,.,0,.0000214,.0000315
AgMet,15min,evanston,130,14DEC2017:07:15:00,12.39,22.01,21.6,22.1,21.2,86,87,85,0.3450,18.1,1.266,1.0,271,14,2.2,14.20,.,0,.0000174,.0000264
AgMet,15min,evanston,130,14DEC2017:07:30:00,12.39,21.88,21.9,22.2,21.6,85,85.6,85,0.3440,18.1,1.076,1.2,355,75,2.4,14.20,.,0,.0000220,.0000327
AgMet,15min,evanston,130,14DEC2017:07:45:00,12.39,22.19,22.2,22.4,21.8,85,85.6,85,0.3450,18.3,1.853,1.5,264,36,3.5,14.20,.,2,.0000288,.0000415
AgMet,15min,evanston,130,14DEC2017:08:00:00,12.39,22.56,22.2,22.6,21.8,85,85.8,85,0.3520,18.4,3.308,2.6,183,12,5.0,14.20,.,7,-.000058,-.000028
AgMet,15min,evanston,130,14DEC2017:08:15:00,12.39,22.86,22.7,23.0,22.4,85,85,84,0.3520,18.8,2.386,2.8,233,12,3.7,14.20,.,19,-.000043,-.000008
AgMet,15min,evanston,130,14DEC2017:08:30:00,12.39,22.93,23.1,23.2,22.9,84,84.1,83,0.3520,18.9,4.043,3.0,207,13,6.1,14.21,.,46,-.000006,.0000347
AgMet,15min,evanston,130,14DEC2017:08:45:00,12.41,20.96,21.9,23.0,20.6,83,83.9,82,0.3240,17.6,5.907,5.2,205,6,8.3,14.21,.,42,.0001479,.0002221
AgMet,15min,evanston,130,14DEC2017:09:00:00,13.39,22.01,21.4,22.1,20.7,82,84.2,80,0.3290,16.8,5.543,5.5,210,9,8.3,14.20,.,136,.0002065,.0002902
AgMet,15min,evanston,130,14DEC2017:09:15:00,13.81,23.48,22.4,23.5,21.5,81,81.4,80,0.3440,17.3,5.603,5.7,213,9,8.8,14.21,.,179,.0003404,.0004421
AgMet,15min,evanston,130,14DEC2017:09:30:00,13.91,25.2,24.0,25.2,23.4,79,79.95,78,0.3600,18.3,5.264,5.6,216,10,7.7,14.21,.,221,.0004884,.0006095
AgMet,15min,evanston,130,14DEC2017:09:45:00,14.03,26.91,26.1,27.0,25.1,75,77.9,73,0.3650,19.3,4.642,4.8,224,10,6.8,14.22,.,253,.0006307,.0007694
AgMet,15min,evanston,130,14DEC2017:10:00:00,14.09,27.15,26.9,27.3,26.4,73,74.14,72,0.3690,19.4,5.122,5.1,212,9,7.5,14.23,.,283,.0007518,.0009147
AgMet,15min,evanston,130,14DEC2017:10:15:00,13.92,27.76,27.5,28.0,27.1,72,73.59,71,0.3700,19.7,4.575,4.7,208,9,6.6,14.23,.,313,.0008690,.0010379
AgMet,15min,evanston,130,14DEC2017:10:30:00,13.95,28.01,27.2,28.3,26.1,72,73.28,71,0.3730,19.5,4.798,4.9,206,8,7.2,14.23,.,232,.0007373,.0009003
AgMet,15min,evanston,130,14DEC2017:10:45:00,13.8,31.93,30.4,31.9,28.1,66,71.74,62,0.3810,20.5,3.935,4.3,195,10,5.9,14.23,.,387,.0012301,.0014483
AgMet,15min,evanston,130,14DEC2017:11:00:00,13.78,30.94,32.5,33.1,30.9,61,62.74,59,0.3620,20.4,2.871,3.3,191,29,9.0,14.24,.,394,.0013442,.0015683
AgMet,15min,evanston,130,14DEC2017:11:15:00,13.74,29.72,29.7,30.9,29.2,64,65.73,62,0.3620,19.0,4.369,3.8,263,23,8.3,14.24,.,380,.0012295,.0014423
AgMet,15min,evanston,130,14DEC2017:11:30:00,13.74,30.45,30.8,32.1,29.7,64,66.31,62,0.3700,20.0,2.986,3.2,216,28,7.9,14.24,.,413,.0013638,.0015701
AgMet,15min,evanston,130,14DEC2017:11:45:00,13.73,31.24,30.8,31.6,30.4,63,65.35,62,0.3700,19.9,3.812,3.7,243,35,7.5,14.24,.,425,.0014057,.0016318
AgMet,15min,evanston,130,14DEC2017:12:00:00,13.74,33.8,33.0,34.5,31.1,60,65.38,55,0.3880,20.6,2.932,3.5,199,24,6.4,14.25,.,435,.0015306,.0017783
AgMet,15min,evanston,130,14DEC2017:12:15:00,13.74,32.09,34.1,35.3,32.0,57,59.99,55,0.3600,20.6,3.541,3.1,203,37,5.9,14.25,.,440,.0015964,.0018446
AgMet,15min,evanston,130,14DEC2017:12:30:00,13.75,32.95,33.1,34.2,31.8,58,60.67,56,0.3620,19.9,2.802,2.9,254,25,6.1,14.25,.,437,.0015580,.0017921
AgMet,15min,evanston,130,14DEC2017:12:45:00,13.75,34.97,34.0,35.1,32.8,56,59.68,52,0.3820,19.9,3.107,3.5,222,48,8.6,14.25,.,437,.0015913,.0018610
AgMet,15min,evanston,130,14DEC2017:13:00:00,13.76,34.11,34.8,35.8,34.0,54,58.08,52,0.3720,20.0,3.224,2.8,238,45,6.6,14.25,.,431,.0015956,.0018445
AgMet,15min,evanston,130,14DEC2017:13:15:00,13.75,34.42,34.4,35.1,33.9,54,57.74,51,0.3640,19.5,3.765,3.5,273,29,6.8,14.25,.,422,.0015516,.0018290
AgMet,15min,evanston,130,14DEC2017:13:30:00,13.77,36.2,35.0,36.4,34.2,53,56.2,49,0.3670,19.4,3.288,4.1,261,42,6.8,14.25,.,408,.0015264,.0018344
AgMet,15min,evanston,130,14DEC2017:13:45:00,13.85,35.28,35.5,36.7,34.7,50,52.45,48,0.3490,18.9,3.337,2.7,255,32,9.4,14.25,.,392,.0014633,.0017161
AgMet,15min,evanston,130,14DEC2017:14:00:00,13.93,35.71,35.9,37.1,34.9,50,53.58,47,0.3580,19.2,3.382,3.5,260,26,8.3,14.25,.,361,.0013799,.0016667
AgMet,15min,evanston,130,14DEC2017:14:15:00,13.89,35.58,36.2,37.2,35.3,50,52.79,49,0.3620,19.4,3.703,3.6,250,29,8.6,14.25,.,349,.0013224,.0016150
AgMet,15min,evanston,130,14DEC2017:14:30:00,13.8,36.07,36.7,37.4,35.6,50,54.81,48,0.3460,19.9,3.606,3.4,234,25,7.2,14.25,.,326,.0012266,.0015057
AgMet,15min,evanston,130,14DEC2017:14:45:00,13.8,36.93,36.8,37.8,36.0,49,52.18,45,0.3720,19.3,3.514,3.6,211,18,7.9,14.25,.,299,.0011261,.0014177
AgMet,15min,evanston,130,14DEC2017:15:00:00,13.91,36.12,36.6,37.2,36.0,49,51.94,46,0.3610,19.2,5.108,4.2,252,16,8.6,14.24,.,272,.0010294,.0013391
AgMet,15min,evanston,130,14DEC2017:15:15:00,13.87,36.24,36.4,36.7,36.0,50,51.25,48,0.3600,19.4,5.13,5.4,241,13,9.9,14.24,.,234,.0009186,.0012695
AgMet,15min,evanston,130,14DEC2017:15:30:00,13.84,35.94,36.5,37.0,35.8,50,51.66,48,0.3690,19.7,4.971,5.0,241,16,9.2,14.24,.,205,.0007860,.0011115
AgMet,15min,evanston,130,14DEC2017:15:45:00,13.93,35.94,36.1,36.7,35.6,51,52.89,50,0.3750,19.9,4.966,4.9,234,16,8.3,14.24,.,171,.0006300,.0009310
AgMet,15min,evanston,130,14DEC2017:16:00:00,13.52,35.32,35.6,36.1,35.3,53,54.18,51,0.3710,20.1,5.611,5.5,236,12,9.4,14.23,.,138,.0005131,.0008195
AgMet,15min,evanston,130,14DEC2017:16:15:00,13.29,33.79,34.6,35.5,33.7,55,56.36,53,0.3640,20.1,5.459,5.5,228,10,8.3,14.23,.,105,.0003633,.0006420
AgMet,15min,evanston,130,14DEC2017:16:30:00,13.19,30.66,31.7,33.9,30.4,60,62.53,55,0.3600,19.5,5.138,5.2,208,8,6.6,14.22,.,73,.0001825,.0003976
AgMet,15min,evanston,130,14DEC2017:16:45:00,12.94,29.19,29.4,30.8,28.6,65,66.86,62,0.3570,19.0,5.76,5.4,216,11,8.6,14.21,.,27,-.000005,.0001682
AgMet,15min,evanston,130,14DEC2017:17:00:00,12.89,28.21,28.3,30.4,27.1,67,69.14,63,0.3480,18.7,6.426,6.2,214,9,9.9,14.21,.,7,.0000478,.0000696
AgMet,15min,evanston,130,14DEC2017:17:15:00,12.87,26.01,26.2,28.3,25.3,70,71.64,67,0.3420,17.7,6.877,6.9,209,9,8.3,14.20,.,2,.0000403,.0000583
AgMet,15min,evanston,130,14DEC2017:17:30:00,12.86,24.42,24.5,26.2,22.9,72,74.88,68,0.3260,16.8,5.506,6.1,215,8,7.5,14.19,.,0,.0000163,.0000301
AgMet,15min,evanston,130,14DEC2017:17:45:00,12.84,22.58,22.9,24.5,22.0,75,77.81,72,0.3180,16.3,3.615,4.6,238,18,5.7,14.19,.,0,-.000020,-.000013